Simultaneous Nadir Overpasses (SNOs) Predictions

Prediction of SNOs between GOES-17 and NOAA-19 Satellite Orbit:

Table of predicted SNOs for the next 14.0 days since TLE Epoch: 10/22/2022
Index Date Time (GOES-17) GOES-17 Lat,Lon NOAA-19 Lat,Lon Distance(km) Time Diff (sec)
1 10/22/2022 04:59:09 0.06,-137.33 1.01,-133.29 460.89 80
2 10/23/2022 17:28:47 -0.07,-137.33 0.79,-141.03 422.28 80
3 10/24/2022 17:16:53 -0.07,-137.33 0.11,-138.13 91.87 80
4 10/25/2022 17:07:40 -0.06,-137.32 -0.57,-135.24 238.37 80
5 10/28/2022 05:25:32 0.06,-137.28 -0.59,-140.10 322.07 80
6 10/29/2022 05:16:18 0.06,-137.26 0.08,-137.20 7.16 80
7 10/30/2022 05:04:25 0.05,-137.24 0.75,-134.30 336.08 80
8 11/01/2022 17:22:07 -0.05,-137.19 0.39,-139.12 219.93 80
9 11/02/2022 17:12:52 -0.05,-137.17 -0.24,-136.21 108.89 80
10 11/03/2022 17:00:59 -0.04,-137.15 -0.94,-133.32 437.61 80
